Starlink 33804

operational
NORAD ID: 63511 Int'l Des: 2025-071 Owner: SPXS Country: US Constellation: starlink
LEOCIRCULAR

Starlink 33804について

説明を読み込み中...

リアルタイム位置

3D地球を読み込み中...

次回通過

高度履歴

Altitude vs Time

uPlot chart will show altitude changes over time

軌道要素

1 63511U 25071U 25257.38581567 .00018071 00000-0 62074-3 0 9994
2 63511 53.1575 239.0367 0001238 99.0587 261.0554 15.30201963 25400
Epoch: Sep 14, 2025 • Age: 25 hours

現在のステータス

高度 489.1 km
速度 7.62 km/s
衛星直下点 -40.65°S, 47.42°W
打ち上げ日 Apr 7, 2025
運用期間 0.4 years
タイプ internet

技術仕様

分類 Payload
質量 575.00 kg
乾燥質量 530.00 kg
総質量 575.00 kg
長さ 0.30 m
直径 4.10 m
スパン 29.00 m
形状 Box + pan
製造者 SPXS
バスタイプ Starlink V2MO
フェーズステータス In Orbit
所有者/国 SPXS/US

大規模コンステレーション

Loading constellations...